| time (UTC) | temp F | wind direction | speed MPH | gust MPH | rain 1hr in | rain 24hr in | rain mn in | humidity % | barometer mb |
| 20260905214918 | 56 | 0 | 3.0 | 5.0 | 0.00 | 0.00 | 0.00 | 91 | 1005.6 |
| 20260905213417 | 56 | 22 | 2.0 | 2.0 | 0.00 | 0.00 | 0.00 | 91 | 1005.5 |
| 20260905211916 | 56 | 0 | 4.0 | 5.0 | 0.00 | 0.00 | 0.00 | 91 | 1005.4 |
| 20260905210415 | 56 | 22 | 2.0 | 2.0 | 0.00 | 0.00 | 0.00 | 91 | 1005.2 |
| 20260905204914 | 56 | 0 | 0.0 | 0.0 | 0.00 | 0.00 | 0.00 | 91 | 1005.2 |
| 20260905203413 | 56 | 0 | 0.0 | 0.0 | 0.00 | 0.00 | 0.00 | 91 | 1005.0 |
| 20260905201913 | 56 | 0 | 0.0 | 0.0 | 0.00 | 0.00 | 0.00 | 91 | 1004.8 |
| 20260905200412 | 56 | 0 | 4.0 | 5.0 | 0.00 | 0.00 | 0.00 | 91 | 1004.8 |
| 20260905194910 | 56 | 0 | 2.0 | 3.0 | 0.00 | 0.00 | 0.00 | 91 | 1004.7 |
| 20260905193410 | 56 | 22 | 4.0 | 4.0 | 0.00 | 0.00 | 0.00 | 91 | 1004.6 |
| 20260905191909 | 56 | 0 | 3.0 | 4.0 | 0.00 | 0.00 | 0.00 | 92 | 1004.4 |
| 20260905190408 | 56 | 0 | 4.0 | 5.0 | 0.00 | 0.00 | 0.00 | 91 | 1004.3 |
| 20260905184907 | 56 | 0 | 2.0 | 3.0 | 0.00 | 0.00 | 0.00 | 91 | 1004.1 |
| 20260905183406 | 57 | 0 | 2.0 | 3.0 | 0.00 | 0.00 | 0.00 | 91 | 1004.0 |
| 20260905181905 | 57 | 0 | 2.0 | 2.0 | 0.00 | 0.00 | 0.00 | 91 | 1004.0 |
| 20260905180404 | 57 | 338 | 3.0 | 4.0 | 0.00 | 0.00 | 0.00 | 91 | 1003.9 |
| 20260905174904 | 57 | 0 | 2.0 | 4.0 | 0.00 | 0.00 | 0.00 | 92 | 1003.6 |
| 20260905173402 | 57 | 0 | 0.0 | 0.0 | 0.00 | 0.00 | 0.00 | 91 | 1003.4 |
| 20260905171901 | 57 | 22 | 2.0 | 2.0 | 0.02 | 0.00 | 0.00 | 91 | 1003.3 |
| 20260905170400 | 57 | 22 | 4.0 | 5.0 | 0.08 | 0.00 | 0.00 | 89 | 1003.3 |
| 20260905164900 | 58 | 0 | 1.0 | 2.0 | 0.08 | 0.00 | 0.00 | 90 | 1003.2 |
| 20260905163359 | 59 | 0 | 5.0 | 6.0 | 0.06 | 0.00 | 0.00 | 90 | 1003.1 |
| 20260905161858 | 60 | 338 | 0.0 | 0.0 | 0.00 | 0.00 | 0.00 | 86 | 1003.4 |
| 20260905160356 | 60 | 338 | 1.0 | 2.0 | 0.00 | 0.00 | 0.00 | 86 | 1002.9 |
| 20260905154856 | 59 | 338 | 1.0 | 1.0 | 0.00 | 0.00 | 0.00 | 86 | 1002.2 |
| 20260905153355 | 59 | 22 | 2.0 | 3.0 | 0.05 | 0.00 | 0.00 | 86 | 1002.2 |
| 20260905151854 | 58 | 0 | 2.0 | 3.0 | 0.05 | 0.00 | 0.00 | 87 | 1002.4 |
| 20260905150353 | 61 | 0 | 3.0 | 6.0 | 0.05 | 0.00 | 0.00 | 84 | 1002.4 |
| 20260905144852 | 65 | 0 | 5.0 | 8.0 | 0.00 | 0.00 | 0.00 | 72 | 1003.1 |
| 20260905143351 | 66 | 338 | 4.0 | 6.0 | 0.00 | 0.00 | 0.00 | 66 | 1002.1 |
| 20260905141850 | 66 | 0 | 5.0 | 5.0 | 0.00 | 0.00 | 0.00 | 66 | 1001.9 |
| 20260905140349 | 66 | 0 | 3.0 | 6.0 | 0.00 | 0.00 | 0.00 | 65 | 1002.0 |
| 20260905133343 | 67 | 0 | 0.0 | 0.0 | 0.00 | 0.00 | 0.00 | 61 | 1001.8 |
| 20260905131843 | 67 | 0 | 6.0 | 6.0 | 0.00 | 0.00 | 0.00 | 61 | 1001.6 |
| 20260905130341 | 66 | 45 | 3.0 | 4.0 | 0.00 | 0.00 | 0.00 | 76 | 1001.7 |
| 20260905124840 | 66 | 22 | 2.0 | 4.0 | 0.00 | 0.00 | 0.00 | 76 | 1001.5 |
| 20260905123339 | 64 | 22 | 2.0 | 3.0 | 0.00 | 0.00 | 0.00 | 82 | 1001.5 |
| 20260905121838 | 62 | 22 | 2.0 | 3.0 | 0.00 | 0.00 | 0.00 | 86 | 1001.7 |
| 20260905120337 | 61 | 0 | 0.0 | 3.0 | 0.08 | 0.00 | 0.00 | 88 | 1001.8 |
| 20260905114836 | 58 | 0 | 2.0 | 2.0 | 0.08 | 0.00 | 0.00 | 89 | 1002.1 |
| 20260905113335 | 57 | 22 | 0.0 | 1.0 | 0.08 | 0.00 | 0.00 | 89 | 1002.1 |
| 20260905111834 | 64 | 338 | 0.0 | 0.0 | 0.00 | 0.00 | 0.00 | 67 | 1002.4 |
| 20260905110333 | 64 | 338 | 0.0 | 0.0 | 0.00 | 0.00 | 0.00 | 67 | 1002.2 |
| 20260905104832 | 64 | 338 | 3.0 | 5.0 | 0.00 | 0.00 | 0.00 | 67 | 1001.6 |
| 20260905103327 | 64 | 0 | 3.0 | 5.0 | 0.00 | 0.00 | 0.00 | 70 | 1001.6 |
| 20260905101826 | 67 | 315 | 4.0 | 5.0 | 0.00 | 0.00 | 0.00 | 64 | 1001.5 |
| 20260905100325 | 67 | 338 | 5.0 | 7.0 | 0.00 | 0.00 | 0.00 | 63 | 1001.3 |
| 20260905094825 | 68 | 0 | 4.0 | 5.0 | 0.00 | 0.00 | 0.00 | 63 | 1001.3 |
| 20260905093323 | 68 | 0 | 4.0 | 6.0 | 0.00 | 0.00 | 0.00 | 63 | 1001.4 |
| 20260905091823 | 68 | 22 | 3.0 | 5.0 | 0.00 | 0.00 | 0.00 | 61 | 1001.2 |
| 20260905090321 | 66 | 22 | 5.0 | 5.0 | 0.00 | 0.00 | 0.00 | 64 | 1001.1 |
| 20260905084820 | 66 | 315 | 0.0 | 0.0 | 0.00 | 0.00 | 0.00 | 66 | 1001.0 |
| 20260905083319 | 66 | 315 | 0.0 | 0.0 | 0.00 | 0.00 | 0.00 | 66 | 1000.8 |
| 20260905081818 | 66 | 315 | 5.0 | 6.0 | 0.00 | 0.00 | 0.00 | 66 | 1000.7 |
| 20260905080317 | 65 | 0 | 5.0 | 6.0 | 0.00 | 0.00 | 0.00 | 68 | 1000.5 |
| 20260905074816 | 66 | 0 | 4.0 | 9.0 | 0.00 | 0.00 | 0.00 | 69 | 1000.5 |
| 20260905073317 | 65 | 0 | 5.0 | 8.0 | 0.00 | 0.00 | 0.00 | 70 | 1000.4 |
| 20260905071814 | 64 | 22 | 5.0 | 6.0 | 0.00 | 0.00 | 0.00 | 72 | 1000.4 |
| 20260905070313 | 62 | 0 | 5.0 | 6.0 | 0.00 | 0.00 | 0.00 | 77 | 1000.2 |
| 20260905064812 | 60 | 338 | 5.0 | 5.0 | 0.00 | 0.00 | 0.00 | 84 | 1000.2 |
| 20260905063311 | 61 | 338 | 0.0 | 0.0 | 0.00 | 0.00 | 0.00 | 80 | 1000.2 |
| 20260905061807 | 61 | 338 | 4.0 | 6.0 | 0.00 | 0.00 | 0.00 | 80 | 1000.1 |
| 20260905060306 | 61 | 338 | 5.0 | 6.0 | 0.00 | 0.00 | 0.00 | 80 | 1000.0 |
| 20260905054805 | 59 | 0 | 0.0 | 0.0 | 0.00 | 0.00 | 0.00 | 86 | 999.8 |
| 20260905053305 | 59 | 0 | 5.0 | 5.0 | 0.00 | 0.00 | 0.00 | 86 | 999.7 |
| 20260905051803 | 59 | 22 | 3.0 | 4.0 | 0.00 | 0.00 | 0.00 | 86 | 999.5 |
| 20260905050302 | 59 | 0 | 0.0 | 0.0 | 0.00 | 0.00 | 0.00 | 86 | 999.4 |
| 20260905044801 | 59 | 0 | 0.0 | 0.0 | 0.00 | 0.00 | 0.00 | 86 | 999.3 |
| 20260905043300 | 59 | 0 | 4.0 | 4.0 | 0.00 | 0.00 | 0.00 | 86 | 999.1 |
| 20260905041800 | 61 | 22 | 0.0 | 0.0 | 0.00 | 0.00 | 0.00 | 82 | 999.0 |
| 20260905040258 | 61 | 22 | 0.0 | 0.0 | 0.00 | 0.00 | 0.00 | 82 | 998.8 |
| 20260905034757 | 61 | 22 | 0.0 | 0.0 | 0.00 | 0.00 | 0.00 | 82 | 998.6 |
| 20260905033256 | 61 | 22 | 0.0 | 0.0 | 0.00 | 0.00 | 0.00 | 82 | 998.4 |
| 20260905031755 | 61 | 22 | 0.0 | 0.0 | 0.00 | 0.00 | 0.00 | 82 | 998.3 |
| 20260905030254 | 61 | 22 | 0.0 | 0.0 | 0.00 | 0.00 | 0.00 | 82 | 998.1 |
| 20260905024753 | 61 | 22 | 0.0 | 0.0 | 0.00 | 0.00 | 0.00 | 82 | 997.9 |
| 20260905023252 | 61 | 22 | 4.0 | 4.0 | 0.00 | 0.00 | 0.00 | 82 | 997.7 |
| 20260905021751 | 62 | 0 | 4.0 | 5.0 | 0.00 | 0.00 | 0.00 | 82 | 997.9 |
| 20260905020250 | 62 | 0 | 3.0 | 5.0 | 0.00 | 0.00 | 0.00 | 81 | 997.7 |
| 20260905014749 | 62 | 338 | 3.0 | 4.0 | 0.00 | 0.00 | 0.00 | 83 | 997.5 |
| 20260905013248 | 62 | 22 | 3.0 | 4.0 | 0.00 | 0.00 | 0.00 | 84 | 997.4 |
| 20260905011747 | 62 | 22 | 2.0 | 2.0 | 0.00 | 0.00 | 0.00 | 85 | 997.1 |
| 20260905010247 | 62 | 0 | 3.0 | 4.0 | 0.00 | 0.00 | 0.00 | 85 | 997.3 |
| 20260905004746 | 62 | 22 | 0.0 | 0.0 | 0.00 | 0.00 | 0.00 | 88 | 997.1 |
| 20260905003244 | 62 | 22 | 0.0 | 0.0 | 0.00 | 0.00 | 0.00 | 88 | 996.7 |
| 20260905001744 | 62 | 22 | 0.0 | 0.0 | 0.00 | 0.00 | 0.00 | 88 | 996.3 |
| 20260905000242 | 62 | 22 | 0.0 | 0.0 | 0.00 | 0.00 | 0.00 | 88 | 996.4 |
| 20260904234741 | 62 | 22 | 4.0 | 4.0 | 0.00 | 0.00 | 0.00 | 88 | 996.4 |
| 20260904233240 | 62 | 0 | 0.0 | 0.0 | 0.00 | 0.00 | 0.00 | 89 | 996.4 |
| 20260904231740 | 62 | 0 | 5.0 | 6.0 | 0.00 | 0.00 | 0.00 | 89 | 996.0 |
| 20260904230239 | 62 | 338 | 5.0 | 6.0 | 0.00 | 0.00 | 0.00 | 89 | 995.7 |
| 20260904224738 | 62 | 22 | 5.0 | 6.0 | 0.00 | 0.00 | 0.00 | 88 | 995.5 |
| 20260904223237 | 62 | 338 | 4.0 | 6.0 | 0.00 | 0.00 | 0.00 | 88 | 995.5 |
| 20260904221736 | 62 | 0 | 4.0 | 6.0 | 0.00 | 0.00 | 0.00 | 88 | 995.3 |
| 20260904220235 | 63 | 338 | 4.0 | 6.0 | 0.00 | 0.00 | 0.00 | 87 | 995.1 |